STARLINK-35692, 66513

Orbit data source: Space-Track

STARLINK-35692, 66513 is a payload satellite owned by SpaceX/Seattle (US) in LEO that was launched on Sat, 15 Nov 2025 UTC via an FALCON 9 launch vehicle from the Air Force Eastern Test Range (AFETR). Payload-class satellites include a variety of spacecraft equipped with specific instruments for various scientific and technological missions. These include communications satellites like Starlink; space stations such as the ISS; scientific satellites like the Hubble; Earth observation satellites from companies like Planet Labs, Umbra, and HawkEye 360; GPS; miniature CubeSats for education and research; and military/defense satellites.

Loading next visibility...
Identifier
66513, 2025-263AE
Orbit
LEO
Country
Flag of USUS
Related business
Manufacturer
SpaceX/Seattle
Mission
Operational Commercial Communications
Bus & Motor
STARLINK V2MO, Unknown motor
Mass
575 kg wet, ~530 kg dry
Launch date (UTC)
2025-11-15 (7 months ago)
Launch vehicle
FALCON 9
Launch site
Air Force Eastern Test Range (AFETR)
Object type
Payload
Rocket body
Debris
Shape & HBR
Box + 2 Pan, 17.7 m
Radar Cross Section
36.964 m², Large (>1 m²)

Expand to show TLE details & history
Last TLE update: 13 hours ago

TLE from 13 hours ago
0 STARLINK-35692
1 66513U 25263AE  26171.32391310  .00020879  00000-0  76677-3 0  9990
2 66513  43.0003 131.2233 0001031 257.5108 102.5629 15.27551443 34594
Epoch: 2026-06-20T07:46Z
TLE epoch observation values (Epoch: 2026-06-20T07:46:26.091Z)
Latitude
0.00001°
Longitude
106.07443°
Altitude
483.064 km
Speed
7.626 km/s
True Right ascension
08h 44m 53s
True Declination
0° 00' 00"
Sunlit
Object was in daylight at epoch
Visualization orbit readout
Latitude
Unknown
Longitude
Unknown
Altitude
Unknown
Speed
Unknown
Apparent Right ascension
Unknown
Apparent Declination
Unknown
Sunlit
N/A
Visualization observer readout
Local Sidereal Time
07:13:18
Azimuth
Unknown
Elevation
Unknown
Doppler factor
Unknown
Orbital elements
Apogee altitude
485.787 km
Perigee altitude
484.372 km
Semi-major axis
6,863.217 km
Eccentricity
0.0001
Inclination
43.0003°
RAAN
131.2233°
Arg. of periapsis
257.5108°
True anomaly
102.57443°
Mean anomaly
102.5629°
Eccentric anomaly
102.56867°
Mean motion
3.81726 °/min
Orbital period
94.31 mins
BSTAR
0.00076677
Loading maneuver chart data...
Computing Atmospheric mass density...
Loading historical data...
Loading historical data...
Loading historical data...
Loading historical data...
Loading historical data...
Loading historical data...
Loading historical data...

Documentation

Showing up to 5 results
|